Preview of NWS' New Version of Forecast
This preview is not operational and should not be used for support decisions.

Regional Weather Roundup (RWR)

Issued by National Weather Service (NWS)

                            
000
ASCA42 TJSJ 160810
RWRPR 
PUERTO RICO/U.S. VIRGIN ISLANDS HOURLY WEATHER ROUNDUP
NATIONAL WEATHER SERVICE SAN JUAN PR
400 AM AST SAT FEB 16 2019

PRZ001>002-007>008-010-160900-
PUERTO RICO
  
CITY           SKY/WX    TMP DP  RH WIND       PRES   REMARKS
SAN JUAN LMM   PTCLDY    75  70  83 S5        29.98S                  
CEIBA          CLEAR     72  70  94 SW3       30.00S                  
$$

VIZ001>002-160900-
U.S. VIRGIN ISLANDS
  
CITY           SKY/WX    TMP DP  RH WIND       PRES   REMARKS
CHARLOTTE AMA  PTCLDY    79  72  78 SE10      29.97F                  
CHRISTIANSTED  PTCLDY    79  72  78 SE9       30.00S                  
$$

HOURLY WEATHER ROUNDUP FOR THE NEWS MEDIA
  
CITY           SKY/WX    TMP DP  RH WIND       PRES   REMARKS
ORLANDO        FAIR      60  55  83 CALM      29.90F                  
NEW YORK       MOCLDY    42  25  50 NW18      29.75S                  
NEWARK         MOCLDY    41  25  53 NW14      29.76R                  
CHICAGO        CLOUDY    14   6  70 W5        30.08F WCI   6          
HARTFORD       CLOUDY    44  42  93 CALM      29.67R                  
BOSTON         CLOUDY    42  22  44 NW12G22   29.68R                  
DALLAS         CLOUDY    37  29  72 N13       29.96R WCI  29          
PHILADELPHIA   CLOUDY    44  14  29 NW10      29.79R                  
LOS ANGELES    MOCLDY    52  48  86 W12       30.09S                  
WASHINGTON DC  CLOUDY    43  17  35 N9        29.85R